Regional Weather Roundup
Issued by NWS

Home | Current Version | Previous Version | Graphics & Text | Print | Product List | Glossary On
Versions: 1 2 3 4 5 6 7 8 9 10 11 12 13 14 15 16 17 18 19 20 21 22 23 24 25 26 27 28 29 30 31 32 33 34 35 36 37 38 39 40 41 42 43 44 45 46 47 48 49 50
000
ASUS43 KFSD 302302
RWRSD

WEATHER ROUNDUP FOR SOUTH DAKOTA
NATIONAL WEATHER SERVICE SIOUX FALLS SD
600 PM CDT TUE SEP 30 2014

NOTE: "FAIR" INDICATES FEW OR NO CLOUDS BELOW 12,000 FEET WITH NO
SIGNIFICANT WEATHER AND/OR OBSTRUCTIONS TO VISIBILITY.


SDZ001>005-009-010-012>017-010000-
NORTHWEST AND NORTH CENTRAL SOUTH DAKOTA

CITY           SKY/WX    TMP DP  RH WIND       PRES   REMARKS
BUFFALO          N/A     53  51  93 W15       29.45R
FAITH            N/A     58  53  84 W30G38    29.44R
MOBRIDGE       CLOUDY    62  54  74 S20G30    29.37F
$$

SDZ012>016-024>037-041>051-057-063-072>074-010000-
SOUTHWEST AND SOUTH CENTRAL SOUTH DAKOTA

CITY           SKY/WX    TMP DP  RH WIND       PRES   REMARKS
RAPID CTY ARPT PTSUNNY   64  44  48 W15G21    29.59R
PIERRE         CLOUDY    67  53  61 SW22G33   29.49R
CUSTER         MOSUNNY   54  42  64 W21G35    29.68R
ELLSWORTH AFB  PTSUNNY   64  45  50 W13G23    29.58R
PHILIP         PTSUNNY   64  49  57 W21G38    29.55R
PINE RIDGE     MOSUNNY   67  45  45 W17       29.65R
WINNER         FAIR      74  44  34 W26G39    29.58R
$$

SDZ004>011-016>023-039-040-010000-
NORTHEAST SOUTH DAKOTA

CITY           SKY/WX    TMP DP  RH WIND       PRES   REMARKS
ABERDEEN       CLOUDY    67  61  81 S24G31    29.51R THUNDER
WATERTOWN      CLOUDY    64  58  80 SE22G36   29.63F
SISSETON         N/A     55  51  86 S16G28    29.66F
$$

SDZ017-020-022-023-036>040-048>070-010000-
SOUTHEAST SOUTH DAKOTA

CITY           SKY/WX    TMP DP  RH WIND       PRES   REMARKS
SIOUX FALLS    PTSUNNY   66  61  84 S17G25    29.71S
HURON          MOSUNNY   74  46  36 SW14G26   29.56R
CHAMBERLAIN    MOSUNNY   72  47  42 SW17G28   29.57R
MITCHELL       PTSUNNY   76  59  55 S18G35    29.60R
YANKTON        MOSUNNY   72  61  68 SE21G26   29.67F
$$

ABBREVIATIONS USED IN REMARKS
   TC - TEMPERATURE IN CELSIUS
  WCI - WIND CHILL INDEX
   HX - HEAT INDEX
  VSB - VISIBILITY



USA.gov is the U.S. government's official web portal to all federal, state and local government web resources and services.